OpenBCM V1.13 (Linux)

Packet Radio Mailbox

DB0FHN

[JN59NK Nuernberg]

 Login: GUEST





  
UA9FBV > KEPS     12.11.04 08:27l 95 Lines 2476 Bytes #999 (0) @ AMSAT
BID : ORB04316.M
Read: GUEST
Subj: Orbital Elements  04316.MISC
Path: DB0FHN<DB0MRW<DB0HOT<OK0PBX<OK0PRG<OK0PCC<OK0PAD<OK0PPL<DB0RES<ER3KAZ<
      UA9FBV
Sent: 041112/0618Z @:UA9FBV.PRM.RUS.AS #:8768 [Perm] GATEWAY $:ORB04316.M
From: UA9FBV@UA9FBV.PRM.RUS.AS
To  : KEPS@AMSAT


HR AMSAT ORBITAL ELEMENTS FOR MANNED AND MISCELLANEOUS SATELLITES
FROM WA5QGD FORT WORTH,TX November 11, 2004
SEND SUBSCRIBE/UNSUBSCRIBE TO majordomo@amsat.org ONLY
BID: ORB04316.M
TO ALL RADIO AMATEURS BT

Satellite: HUBBLE
Catalog number: 20580
Epoch time:      04316.89393997
Element set:     204
Inclination:       28.4694 deg
RA of node:       244.3096 deg
Eccentricity:    0.0004317
Arg of perigee:   103.3392 deg
Mean anomaly:     256.7557 deg
Mean motion:   14.99434921 rev/day
Decay rate:      3.565e-05 rev/day^2
Epoch rev:           59759
Checksum:              334

Satellite: UARS
Catalog number: 21701
Epoch time:      04316.14910270
Element set:     307
Inclination:       56.9815 deg
RA of node:       353.8159 deg
Eccentricity:    0.0003940
Arg of perigee:    88.0338 deg
Mean anomaly:     272.1145 deg
Mean motion:   15.03678223 rev/day
Decay rate:      1.482e-05 rev/day^2
Epoch rev:           72069
Checksum:              279

Satellite: PO-34
Catalog number: 25520
Epoch time:      04315.43539623
Element set:      50
Inclination:       28.4601 deg
RA of node:       334.3836 deg
Eccentricity:    0.0005433
Arg of perigee:     9.4460 deg
Mean anomaly:     350.6360 deg
Mean motion:   15.15881349 rev/day
Decay rate:      3.440e-05 rev/day^2
Epoch rev:           33335
Checksum:              268

Satellite: ISS
Catalog number: 25544
Epoch time:      04316.98447509
Element set:     119
Inclination:       51.6339 deg
RA of node:       291.5611 deg
Eccentricity:    0.0008804
Arg of perigee:   345.2603 deg
Mean anomaly:     123.8177 deg
Mean motion:   15.70793314 rev/day
Decay rate:    -6.9462e-04 rev/day^2
Epoch rev:           34153
Checksum:              306

Satellite: OO-38
Catalog number: 26063
Epoch time:      04316.48448475
Element set:     207
Inclination:      100.2245 deg
RA of node:       130.4560 deg
Eccentricity:    0.0036775
Arg of perigee:   308.4668 deg
Mean anomaly:      51.3206 deg
Mean motion:   14.35681761 rev/day
Decay rate:       2.97e-06 rev/day^2
Epoch rev:           25105
Checksum:              291

Satellite: NO-45
Catalog number: 26932
Epoch time:      04316.41124219
Element set:     889
Inclination:       67.0593 deg
RA of node:        68.3057 deg
Eccentricity:    0.0006922
Arg of perigee:   286.9186 deg
Mean anomaly:      73.1165 deg
Mean motion:   14.29452897 rev/day
Decay rate:       1.15e-06 rev/day^2
Epoch rev:           16267
Checksum:              325



Read previous mail | Read next mail


 11.09.2026 15:00:40lGo back Go up